Regional Weather Roundup
Issued by NWS Wakefield, VA

Home | Current Version | Previous Version | Graphics & Text | Print | Product List | Glossary On
Versions: 1 2 3 4 5 6 7 8 9 10 11 12 13 14 15 16 17 18 19 20 21 22 23 24 25 26 27 28 29 30 31 32 33 34 35 36 37 38 39 40 41 42 43 44 45 46 47 48 49 50
547
ASUS41 KAKQ 240815
RWRAKQ

REGIONAL WEATHER ROUNDUP
NATIONAL WEATHER SERVICE WAKEFIELD VA
300 AM EST FRI NOV 24 2017

Note: "fair" indicates few or no clouds below 12,000 feet with no
significant weather and/or obstructions to visibility. * = Denotes
station may not report precipitation (e.g., rain,snow,etc.),
thunder or fog.

VAZ042-051-052>054-056-240900-
NORTHERN VIRGINIA

CITY           SKY/WX    TMP DP  RH WIND       PRES   REMARKS
WASH NATIONAL  CLEAR     34  29  82 SW5       30.09R
DULLES         CLEAR     26  24  92 CALM      30.07R
FORT BELVOIR   CLEAR     26  24  90 CALM      30.08S
QUANTICO       CLEAR     31  28  89 NW5       30.09S
FREDERICKSBRG* CLEAR     28  28 100 CALM      30.07F
STAFFORD*      CLEAR     24  24 100 CALM      30.11S
WARRENTON      NOT AVBL
CULPEPER*      CLEAR     24  22  91 CALM      30.08R
MANASSAS*      CLEAR     23  21  92 CALM      30.08R
LEESBURG*      CLEAR     30  28  93 CALM      30.07R
WINCHESTER     CLEAR     27  21  80 CALM      30.05S
FRONT ROYAL*   SUNNY     28  25  86 S9        30.04S
LURAY*         SUNNY     27  27 100 SW3       30.05R
$$

VAZ048-049-060>072-079>083-240900-
CENTRAL AND SOUTH CENTRAL VIRGINIA

CITY           SKY/WX    TMP DP  RH WIND       PRES   REMARKS
RICHMOND       CLEAR     27  23  85 CALM      30.08S
CHESTERFIELD*  NOT AVBL
PETERSBURG*    CLEAR    N/A N/A N/A CALM      30.09S
HANOVER        CLEAR     26  24  92 CALM      30.09S
TAPPAHANNOCK*    N/A    N/A N/A N/A MISG        N/A
QUINTON*       FAIR      27  26  99 CALM      30.08S
CHARLOTTSVILLE CLEAR     29  25  85 CALM      30.04F
GORDONSVILLE*  SUNNY     24  24  96 CALM      30.05S
ORANGE*        CLEAR     25  23  93 CALM      30.06S
LOUISA*        CLEAR     24  22  94 S5        30.10S
BUMPASS*       FAIR      27  25  93 CALM      30.07S
FARMVILLE*     CLOUDY    24  24 100 CALM      30.06S
CREWE*         FAIR      25  25 100 CALM      30.06F
FORT PICKETT*  FAIR      27  27 100 CALM      30.07S
CHASE CITY*    FAIR      28  28 100 CALM      30.07S
CLARKSVILLE*   CLOUDY    28  28 100 CALM      30.07S VSB 1
SOUTH HILL*    CLEAR     27  26  99 CALM      30.14R
LAWRENCEVILLE* FAIR      29  27  93 CALM      30.08R
EMPORIA*       CLEAR     27  25  93 CALM      30.10S
$$

VAZ088>098-240900-
SOUTHEAST VIRGINIA

CITY           SKY/WX    TMP DP  RH WIND       PRES   REMARKS
NORFOLK        CLEAR     31  29  92 CALM      30.08S
VIRGINIA BEACH CLEAR     30  28  92 CALM      30.08S
NORFOLK NAVAL  CLEAR     32  27  81 CALM      30.10S
WEST POINT*    CLOUDY    26  25  96 CALM      30.11S VSB 1/2
SALUDA*        FAIR      27  27  98 CALM      30.09S
NEWPORT NEWS   CLEAR     26  24  92 CALM      30.09S
LANGLEY AFB    CLEAR     30  28  92 CALM      30.08S
FORT EUSTIS    CLEAR     30  28  90 CALM      30.06S
WILLIAMSBURG*  CLEAR     30  28  93 CALM      30.09F
HR EXEC AP*    NOT AVBL
FRANKLIN*      CLEAR     24  23  93 CALM      30.10S
US460-WAKEFLD  CLEAR     26  24  92 CALM      30.09S
$$

VAZ020-022-025-037-045-240900-
WEST CENTRAL AND SOUTHWEST VIRGINIA

CITY           SKY/WX    TMP DP  RH WIND       PRES   REMARKS
STAUNTON*      CLOUDY    22  20  91 CALM      30.06S
WAYNESBORO*    SUNNY     26  23  89 CALM      30.03S
HOT SPRINGS VA CLEAR     36   2  23 CALM      29.98S
LYNCHBURG      CLEAR     25  24  96 CALM      30.04F
DANVILLE       CLEAR     25  24  96 CALM      30.07S
SOUTH BOSTON*  FAIR      25  24  96 CALM      30.08S
MARTINSVILLE   CLEAR     23  21  93 CALM      30.08S
ROANOKE        CLEAR     28  24  85 CALM      30.06S
BLACKSBURG     CLEAR     27  24  87 CALM      30.06S
DUBLIN*        CLOUDY    28  24  82 CALM      30.04S
MARION*        CLEAR     30  26  84 CALM      30.05S
HILLSVILLE*    CLOUDY    30  25  84 S3        30.00S
RICHLANDS*     FAIR      38  23  53 CALM      30.03S
WISE*          CLEAR     36  25  64 CALM      30.03S
ABINGDON*      CLEAR     33  31  91 CALM      30.04R
$$

MDZ021>025-VAZ099-100-240900-
SOUTHERN MARYLAND AND THE DELMARVA PENINSULA

CITY           SKY/WX    TMP DP  RH WIND       PRES   REMARKS
PATUXENT RIVER CLEAR     28  27  96 CALM      30.08S
BAY BRIDGE APT CLEAR     32  30  93 MISG      30.08R
LEONARDTOWN    CLEAR     28  28 100 CALM      30.09S
DOVER          CLEAR     30  29  99 CALM      30.07S
GEORGETOWN     CLEAR     28  24  85 CALM      30.08S
EASTON         CLEAR     29  27  90 CALM      30.11S
CAMBRIDGE      CLEAR     27  27 100 CALM      30.08S
SALISBURY      CLEAR     27  25  92 CALM      30.08S
OCEAN CITY     CLEAR     27  25  92 CALM      30.09S
WALLOPS ISLAND CLEAR     27  25  92 NW3       30.09S
ACCOMACK*      CLEAR     29  27  94 CALM      30.08F
$$

NCZ012>017-030>032-240900-
NORTH CENTRAL AND EASTERN NORTH CAROLINA

CITY           SKY/WX    TMP DP  RH WIND       PRES   REMARKS
ROANOKE RAPIDS FAIR      28  28 100 CALM      30.08S
RALEIGH        CLEAR     28  27  96 CALM      30.07S
ELIZABETH CITY CLEAR     39  34  82 N8        30.08S
AHOSKIE*       CLEAR     28  27  99 CALM      30.09S
EDENTON*       CLEAR     33  32  96 CALM      30.09R
CURRITUCK*     CLEAR     34  32  95 CALM      30.09S
KILL DEVIL HLS CLEAR     41  34  76 CALM      30.05S
MANTEO         CLEAR     43  36  75 N5        30.07R
CAPE HATTERAS  PTCLDY    51  42  71 NE8       30.02F
TARBORO*       NOT AVBL
GOLDSBORO      CLOUDY    32  30  93 CALM      30.05R FOG
WASHINGTON     CLEAR     33  32  96 CALM      30.08R
GREENVILLE     CLEAR     30  30 100 CALM      30.08S FOG
NEW BERN       CLOUDY    39  38  96 N6        30.06R
WILMINGTON     CLOUDY    44  40  85 NE8       30.03S
$$

VAZ048-240900-
ELSEWHERE

CITY           SKY/WX    TMP DP  RH WIND       PRES   REMARKS
HARRISBURG PA  PTCLDY    27  25  92 CALM      30.05S
BALTIMORE      CLEAR     28  24  85 CALM      30.07R
ANNAPOLIS      CLEAR     34  31  88 CALM      30.08R
ANDREWS AFB    CLEAR     28  24  84 CALM      30.06S
PHILADELPHIA   CLEAR     33  25  72 CALM      30.07S
HENDERSON NC   CLEAR     26  24  93 CALM      30.07R
GREENSBORO     CLEAR     31  27  85 CALM      30.04S
ROCKY MOUNT    CLEAR     30  30 100 N3        30.08R FOG
$$

VAZ100-240900-
MARINE

STATION/POSITION TIME  TEMP    WIND        PRES    WAVE   SWELL
                       AIR SEA DIR/SP/G            HT/PER HT/PER
                 (UTC) (F)     (DEG/KT/KT) (MB)    (FT/S) (FT/S)
BRANDYWINE LGT   0742   42     290/  6/  8 1018.6R
CAPE MAY NJ      0748   35 50  260/  1/  2 1017.8R
LEWES DE         0742   33 48  210/  5/  7 1018.2S
15NM E FENWICK I 0750   43 57  320/  4/  8 1018.7S   3/ 9   3/ 9
OCEAN-CITY-INLET 0742   37 53  310/  2/  3 1018.9F
WACHAPREAGUE VA  0748   35 46   CALM  /  1 1018.6F
THOMAS POINT MD  0800   41 51  230/  4/  5   N/A
GOOSES REEF MD   0750   43     270/  6/  8 1019.0R
COVE POINT MD    0748   40     260/  4/  5 1019.1S
SOLOMONS ISLAND  0742   39 53  270/  3/  4 1018.2F
BISHOPS HEAD MD  0748   41 44   10/  2/  3 1018.8S
PINEY POINT MD   0748          310/  6/  7   N/A
POTOMAC MD       0750   42     250/  6/  6 1017.8F
CAMBRIDGE MD     0742   31 49              1019.2S
LEWISETTA VA     0748   36 49  230/  3/  3 1018.5F
RAPPAHANNOCK LGT 0748          120/  4/  5 1019.1F
STINGRAY PT      0750   42     270/  4/  6 1018.8S
YORK RVR RNG VA  0748   42     340/  3/  4 1019.1S
YORKTOWN VA      0748   36 53  250/  2/  3 1018.3F
JAMESTOWN VA     0750          210/  4/  6   N/A
DOMINION TERM VA 0748   41      40/  2/  2 1019.0R
KIPTOPEKE VA     0748      52   90/  4/  4   N/A
CAPE HENRY VA    0748   44     360/  5/  8   N/A
WILLOUBY STN VA  0742   43     330/  4/  5 1018.7R
S CRANEY ISL VA  0748   36     260/  4/  4 1018.6R
CAPE HENRY BUOY  0800      59                N/A     3/10   2/11
1ST LANDING BUOY 0750   44      40/  6/  8 1018.7R
CAPE CHARLES BUO 0751      58                N/A     3/ 9   2/11
64NM E OF VA BCH 0750   48 59   10/  8/ 12 1018.6R   5/ 9   5/ 9
DUCK PIER NC     0748   45 57  330/ 12/ 14 1017.6R
44100 DUCK FRF   0745      60                N/A     3/ 9   2/11
44056 DUCK FRF   0800      60                N/A     3/10   2/11
OREGON INLET NC  0742   48 57  360/  8/ 12 1017.6R
HATTERAS NC      0748   51 58   20/ 12/ 16 1016.2F
DIAMOND SHLS NC  0800   57 72   20/ 16/ 21 1016.0
CAPE LOOKOUT NC  0800           10/ 12/ 17 1016.5R
$$




USA.gov is the U.S. government's official web portal to all federal, state and local government web resources and services.